Total_Precipitation_Accumulation
2.24 2.69 3.40 4.43 4.96 5.61 5.50 5.08 4.79 4.57 4.47 4.40 4.40 4.43 4.49 4.63 4.73 4.63 4.40 4.35 4.26 4.37 4.59 4.39 4.34 4.13 4.05 4.11 4.11 3.98 3.86 3.67 3.57 3.47 3.10 2.60 2.19 2.00 1.88 1.91 1.98 1.94 1.86
2.41 3.04 3.58 4.20 4.61 4.72 4.91 5.18 5.17 5.08 4.78 4.67 4.95 5.37 5.61 5.48 5.49 5.41 5.34 5.14 5.00 4.98 4.90 4.84 4.51 4.30 4.19 4.05 3.96 3.85 3.76 3.53 3.49 3.56 3.50 3.04 2.66 2.16 1.71 1.81 1.85 1.85 1.88
2.17 2.82 3.36 3.80 4.34 4.67 4.74 5.03 5.10 5.25 5.46 5.59 5.73 6.10 6.36 6.18 5.94 5.57 5.39 5.15 4.87 4.80 4.70 4.61 4.42 4.30 4.12 3.96 3.90 3.83 3.76 3.58 3.50 3.54 3.70 3.48 2.94 2.40 1.99 1.80 1.76 1.80 1.86
2.09 2.46 2.90 3.22 3.64 3.98 4.31 4.69 4.86 5.04 5.57 6.29 6.56 6.59 6.66 6.49 6.14 5.80 5.47 5.08 4.74 4.49 4.34 4.40 4.32 4.19 3.97 3.81 3.50 3.49 3.58 3.72 3.52 3.40 3.17 3.02 2.77 2.66 2.44 2.16 1.96 1.84 1.80
2.02 2.20 2.32 2.70 3.24 3.49 3.74 4.23 4.64 5.09 5.70 6.23 6.58 6.79 6.67 6.42 6.11 5.64 5.29 4.93 4.55 4.17 3.90 3.93 3.87 3.69 3.49 3.36 3.19 3.16 3.21 3.31 3.29 3.26 3.13 2.99 2.80 2.57 2.50 2.36 2.14 2.00 1.83
1.87 1.98 2.19 2.43 2.75 3.08 3.35 3.66 4.23 4.90 5.32 5.67 6.01 6.18 6.26 6.14 5.80 5.31 4.99 4.66 4.29 3.94 3.64 3.32 3.27 3.22 3.06 2.87 2.82 2.81 2.78 2.86 2.92 3.00 2.92 2.77 2.68 2.60 2.60 2.47 2.27 2.17 2.00
1.75 2.02 2.18 2.40 2.63 2.92 3.28 3.58 3.98 4.54 4.84 4.94 5.10 5.38 5.56 5.56 5.42 5.17 4.82 4.39 3.89 3.42 3.16 2.94 2.83 2.76 2.70 2.58 2.52 2.52 2.40 2.35 2.44 2.43 2.52 2.54 2.43 2.32 2.41 2.51 2.39 2.19 2.05
1.96 2.06 2.12 2.31 2.62 2.81 2.96 3.33 3.58 4.10 4.38 4.25 4.36 4.65 4.88 4.82 4.67 4.44 3.99 3.56 3.20 2.89 2.67 2.57 2.37 2.17 2.05 1.99 2.09 2.15 2.11 2.08 2.06 2.00 2.21 2.28 2.20 2.16 2.19 2.28 2.48 2.43 2.21
2.03 2.11 2.02 2.12 2.35 2.60 2.76 2.93 3.11 3.49 3.76 3.71 3.75 3.79 3.81 3.80 3.70 3.49 3.16 2.79 2.54 2.31 2.22 2.11 2.03 1.95 1.84 1.78 1.79 1.83 1.92 1.93 1.86 1.86 1.98 1.97 1.91 1.92 1.97 2.07 2.27 2.51 2.44
1.82 1.90 1.97 2.05 1.98 2.05 2.36 2.61 2.69 2.85 2.98 2.97 2.97 2.96 3.02 3.08 2.98 2.69 2.37 2.21 2.13 1.99 1.86 1.80 1.75 1.76 1.71 1.68 1.75 1.72 1.77 1.86 1.76 1.72 1.72 1.68 1.63 1.73 1.75 1.84 1.96 2.16 2.35
1.69 1.80 1.90 1.95 1.82 1.74 1.86 2.10 2.32 2.42 2.54 2.63 2.65 2.53 2.46 2.37 2.30 2.16 1.94 1.90 1.87 1.76 1.66 1.58 1.54 1.51 1.53 1.54 1.57 1.52 1.49 1.49 1.45 1.36 1.35 1.37 1.45 1.59 1.60 1.62 1.76 1.97 2.17
1.83 1.87 2.02 1.94 1.81 1.83 1.84 1.87 2.00 2.13 2.21 2.24 2.35 2.37 2.26 2.05 1.95 1.86 1.77 1.68 1.62 1.58 1.53 1.42 1.37 1.33 1.28 1.26 1.25 1.26 1.28 1.28 1.26 1.26 1.31 1.31 1.37 1.49 1.52 1.58 1.64 1.80 2.06
2.14 2.09 2.08 1.97 1.87 1.85 1.76 1.67 1.73 1.85 1.93 1.99 2.03 2.00 1.93 1.82 1.72 1.69 1.69 1.57 1.50 1.42 1.35 1.30 1.29 1.24 1.25 1.17 1.10 1.10 1.16 1.16 1.13 1.18 1.25 1.32 1.55 1.57 1.55 1.59 1.62 1.72 1.85
2.31 2.23 2.16 2.11 2.02 1.93 1.77 1.65 1.63 1.60 1.56 1.65 1.77 1.78 1.74 1.69 1.61 1.50 1.48 1.45 1.42 1.36 1.31 1.28 1.20 1.16 1.16 1.16 1.11 1.08 1.12 1.14 1.12 1.17 1.25 1.33 1.50 1.59 1.65 1.63 1.69 1.75 1.91
2.40 2.33 2.35 2.26 2.23 2.19 2.02 1.88 1.75 1.64 1.57 1.55 1.51 1.59 1.69 1.68 1.61 1.54 1.49 1.44 1.36 1.26 1.26 1.24 1.18 1.17 1.14 1.07 1.08 1.07 1.09 1.17 1.18 1.13 1.14 1.20 1.30 1.42 1.43 1.33 1.45 1.64 1.90
2.43 2.48 2.59 2.54 2.49 2.44 2.24 2.07 1.92 1.70 1.57 1.55 1.52 1.55 1.61 1.60 1.54 1.50 1.45 1.40 1.35 1.33 1.30 1.25 1.19 1.13 0.91 1.00 1.04 1.03 1.10 1.16 1.16 1.14 1.13 1.08 1.05 1.03 1.03 1.08 1.16 1.34 1.63
2.72 2.76 2.71 2.69 2.61 2.54 2.53 2.45 2.19 1.93 1.81 1.69 1.58 1.56 1.53 1.48 1.44 1.32 1.30 1.37 1.38 1.35 1.27 1.22 1.20 1.14 1.01 1.00 0.95 0.98 1.10 1.20 1.26 1.30 1.27 1.00 0.86 0.97 0.99 1.04 1.10 1.22 1.40
2.61 2.68 2.63 2.64 2.58 2.49 2.45 2.41 2.31 2.10 1.84 1.72 1.57 1.47 1.47 1.44 1.44 1.40 1.36 1.40 1.42 1.35 1.33 1.29 1.26 1.24 1.10 1.02 0.94 0.98 1.04 1.18 1.20 1.20 1.22 1.21 1.11 1.03 1.11 1.17 1.24 1.34 1.45
2.46 2.53 2.62 2.65 2.63 2.52 2.33 2.21 2.16 2.07 1.95 1.74 1.52 1.39 1.39 1.36 1.36 1.37 1.37 1.39 1.39 1.33 1.28 1.26 1.28 1.34 1.27 1.11 0.99 0.92 0.94 1.07 1.10 1.06 1.04 1.01 1.05 1.15 1.31 1.41 1.62 1.72 1.81
2.41 2.52 2.63 2.70 2.68 2.61 2.28 2.12 2.00 1.87 1.72 1.52 1.38 1.32 1.32 1.27 1.24 1.29 1.34 1.36 1.37 1.32 1.27 1.25 1.29 1.28 1.18 1.01 0.86 0.82 0.83 0.98 1.04 1.10 1.07 0.96 0.91 1.06 1.24 1.46 1.79 1.94 2.01
2.38 2.47 2.50 2.52 2.47 2.45 2.21 2.08 1.88 1.71 1.44 1.25 1.22 1.25 1.23 1.17 1.12 1.17 1.22 1.29 1.27 1.28 1.28 1.20 1.18 1.11 0.97 0.90 0.78 0.75 0.75 0.86 1.00 1.06 1.10 1.05 0.97 1.02 1.26 1.48 1.70 1.86 1.90
2.22 2.31 2.35 2.32 2.21 2.11 2.03 1.92 1.74 1.47 1.27 1.15 1.12 1.19 1.23 1.04 0.93 1.04 1.05 1.09 1.25 1.22 1.20 1.22 1.12 0.98 0.91 0.79 0.72 0.70 0.68 0.72 0.92 1.11 1.10 1.12 1.10 1.12 1.32 1.47 1.71 1.92 1.99
1.97 2.03 1.93 1.83 1.83 1.78 1.74 1.67 1.50 1.29 1.17 1.15 1.19 1.19 1.17 1.10 1.05 1.07 1.04 1.07 1.17 1.18 1.10 1.10 1.04 0.90 0.88 0.80 0.73 0.72 0.74 0.77 0.87 1.05 1.12 1.13 1.12 1.21 1.47 1.65 1.84 2.02 2.11
1.61 1.68 1.65 1.59 1.55 1.49 1.42 1.35 1.22 1.19 1.18 1.18 1.21 1.25 1.21 1.10 1.06 1.12 1.03 1.02 1.02 1.06 1.03 0.99 0.99 0.94 0.89 0.79 0.72 0.75 0.80 0.83 0.86 0.96 1.12 1.21 1.24 1.37 1.65 1.85 2.04 2.13 2.08
1.33 1.35 1.45 1.47 1.36 1.26 1.21 1.15 1.06 1.06 1.19 1.24 1.19 1.18 1.09 1.07 1.10 1.04 0.91 0.85 0.81 0.85 0.92 0.92 0.90 0.88 0.83 0.77 0.78 0.75 0.72 0.75 0.78 0.90 1.09 1.25 1.36 1.52 1.72 1.91 1.98 1.98 1.90
1.19 1.26 1.32 1.29 1.24 1.17 1.09 1.03 0.96 0.98 1.11 1.19 1.16 1.08 1.01 0.99 0.96 0.99 0.92 0.83 0.77 0.76 0.74 0.78 0.74 0.71 0.77 0.78 0.76 0.72 0.73 0.75 0.80 0.88 1.10 1.27 1.37 1.52 1.70 1.85 1.86 1.80 1.72